[[{"header":{"parameterUnit":"m.s-1","parameterCategory":1,"la1":30.2991,"la2":30.254,"lo1":-89.0895,"lo2":-89.0444,"dy":0.0017,"dx":0.0017,"nx":28,"ny":28,"refTime":"2024-12-03T09:00:00:Z","depth":0,"parameterNumber":2,"parameterNumberName":"U-component_of_WINDS"},"data":[0,0,0,0,0,0,0,0,0,0,0,0,0,0,0,0,0,0,0,0,0,0,0,0,0,0,0,0,0,0,0,0,0,0,0,0,0,0,0,0,0,0,0,0,0,0,0,0,0,0,0,0,0,0,0,0,0,0,-1.103,-1.1029,0,-1.0963,-1.0962,-1.0962,-1.0988,-1.099,-1.0991,-1.0993,-1.0919,-1.0915,-1.0912,0,0,0,0,0,0,0,0,0,0,0,0,0,-1.1174,-1.1171,-1.103,-1.1029,-1.1029,-1.0963,-1.0962,-1.0962,-1.0988,-1.099,-1.0992,-1.0993,-1.092,-1.0916,-1.0912,0,0,0,0,0,0,0,0,0,0,0,0,0,-1.1109,-1.117,-1.103,-1.1034,-1.1034,-1.0964,-1.0962,-1.0961,-1.0987,-1.099,-1.0992,-1.0994,-1.0921,-1.0916,-1.0911,-1.0832,0,0,-1.0895,-1.0893,0,0,0,0,0,0,0,0,-1.1113,-1.1104,-1.1034,-1.1034,-1.1033,-1.0987,-1.0986,-1.0918,-1.0987,-1.1005,-1.0993,-1.0996,-1.0939,-1.0932,-1.0915,-1.0828,-1.0825,-1.0895,-1.0892,-1.0889,-1.0888,0,0,0,0,0,0,0,-1.1118,-1.1107,-1.1004,-1.1033,-1.1032,-1.1037,-1.103,-1.0973,-1.0959,-1.1003,-1.1005,-1.0997,-1.0939,-1.0919,-1.0913,-1.0824,-1.0895,-1.089,-1.0887,-1.0885,-1.0664,-1.0662,0,0,0,0,0,0,-1.1123,-1.1111,-1.1006,-1.1002,-1.108,-1.1032,-1.1025,-1.0999,-1.096,-1.0956,-1.0995,-1.0999,-1.0927,-1.0919,-1.091,-1.0812,-1.0889,-1.0885,-1.0882,-1.0667,-1.0664,-1.0661,0,0,0,0,0,0,-1.1126,-1.1113,-1.1008,-1.1057,-1.1044,-1.1027,-1.0998,-1.0996,-1.0977,-1.0954,-1.0951,-1.0978,-1.0929,-1.0918,-1.085,-1.081,-1.0882,-1.0878,-1.067,-1.0666,-1.0662,-1.0616,0,0,0,0,0,0,-1.113,-1.1114,-1.1086,-1.1056,-1.1041,-1.0952,-1.0996,-1.0993,-1.0969,-1.0972,-1.0937,-1.0933,-1.093,-1.0858,-1.0845,-1.0804,-1.0873,-1.0674,-1.0668,-1.0664,-1.0621,-1.061,-1.0602,0,0,0,0,0,-1.1135,-1.1075,-1.1084,-1.1072,-1.1005,-1.0949,-1.0941,-1.0939,-1.0965,-1.0935,-1.092,-1.0934,-1.0817,-1.0851,-1.0837,-1.0793,-1.0676,-1.067,-1.0664,-1.0625,-1.0612,-1.0602,0,0,0,0,0,0,-1.11,-1.1071,-1.1081,-1.101,-1.0982,-1.0954,-1.0916,-1.0926,-1.0889,-1.0894,-1.0892,-1.0883,-1.0813,-1.0797,-1.0836,-1.0712,-1.075,-1.0741,-1.0725,-1.0713,-1.0704,-1.0708,-1.0869,0,0,0,0,0,-1.1084,-1.1043,-1.102,-1.0959,-1.0945,-1.0933,-1.0908,-1.0909,-1.0879,-1.0867,-1.0847,-1.0815,-1.0771,-1.0741,-1.07,-1.0619,-1.0609,-1.0582,-1.0572,-1.0564,-1.0555,-1.0507,-1.0493,-1.064,-1.064,-1.064,0,0,-1.1051,-1.103,-1.1004,-1.0951,-1.093,-1.0884,-1.0922,-1.0874,-1.0839,-1.0859,-1.0794,-1.0778,-1.0742,-1.0667,-1.0633,-1.0651,-1.0513,-1.0557,-1.0551,-1.0546,-1.0499,-1.0485,-1.0473,-1.0636,-1.0637,-1.0638,0,0,-1.0966,-1.0948,-1.0893,-1.0871,-1.0838,-1.083,-1.0816,-1.0786,-1.0776,-1.0711,-1.0724,-1.0682,-1.0607,-1.0579,-1.0556,-1.0458,-1.0468,-1.0444,-1.0393,-1.0346,-1.0334,-1.0324,-1.0285,-1.0272,-1.0436,-1.0436,-1.0435,0,-1.0927,-1.0862,-1.0864,-1.0813,-1.0788,-1.0805,-1.0748,-1.0726,-1.068,-1.066,-1.0682,-1.0586,-1.0563,-1.048,-1.0455,-1.0437,-1.0419,-1.0447,-1.0337,-1.0326,-1.0316,-1.0279,-1.0265,-1.0433,-1.0433,-1.0433,-1.0434,0,-1.0815,-1.0769,-1.0728,-1.0684,-1.0655,-1.0601,-1.0592,-1.0562,-1.0565,-1.0554,-1.0485,-1.0458,-1.0409,-1.039,-1.0393,-1.0306,-1.0318,-1.0338,-1.0375,-1.0299,-1.0264,-1.025,-1.0428,-1.0429,-1.043,-1.0431,0,0,-1.0705,-1.0662,-1.0647,-1.0625,-1.0589,-1.0552,-1.0498,-1.0452,-1.0423,-1.0391,-1.0342,-1.0277,-1.0295,-1.0268,-1.0267,-1.0226,-1.0145,-1.0251,-1.025,-1.0229,-1.0042,-1.0025,-1.0009,-1.0153,-1.0151,-1.0148,-1.0044,0,-1.0615,-1.0522,-1.0521,-1.0433,-1.0388,-1.0403,-1.0355,-1.0326,-1.0313,-1.0271,-1.0257,-1.0209,-1.0238,-1.0221,-1.0182,-1.0164,-1.0107,-1.0172,-1.0104,-1.0102,-1.011,-0.9991,-0.9974,-0.9877,-1.0031,-1.0029,-1.0027,0,-1.0498,-1.0461,-1.0369,-1.0337,-1.0318,-1.0275,-1.023,-1.0191,-1.0157,-1.015,-1.0119,-1.0124,-1.0064,-1.0106,-1.0022,-1.0065,-1.0038,-1.0024,-1.0021,-1.0012,-1.0058,-0.9976,-0.9846,-0.983,-1.0006,-1.0008,-1.0009,0,-1.0422,-1.0351,-1.0286,-1.0267,-1.0228,-1.0197,-1.0179,-1.0147,-1.0118,-1.0079,-1.0059,-1.0013,-0.9986,-0.9949,-0.9939,-0.9971,-0.9854,-0.9895,-0.9843,-0.9843,-0.9816,-0.9817,-0.9676,-0.9804,-0.9804,-0.9804,-0.9804,0,-1.032,-1.0262,-1.0251,-1.0211,-1.0145,-1.0143,-1.0078,-1.0062,-1.0033,-0.9987,-0.9997,-0.9954,-0.9946,-0.9899,-0.9891,-0.9821,-0.981,-0.98,-0.9798,-0.9797,-0.9798,-0.9777,-0.9782,-0.98,-0.9801,-0.9802,-0.9802,0,-1.0224,-1.0215,-1.0144,-1.0113,-1.0104,-1.0056,-1.0028,-0.9987,-0.9976,-0.9917,-0.9904,-0.9884,-0.983,-0.9817,-0.9753,-0.9747,-0.9662,-0.9668,-0.9674,-0.9673,-0.962,-0.9624,-0.9458,-0.9435,-0.9581,-0.9579,-0.9578,0,-1.0158,-1.0114,-1.0078,-1.0048,-1.0029,-0.9982,-0.9952,-0.9948,-0.9916,-0.9872,-0.9835,-0.9783,-0.974,-0.9651,-0.9629,-0.9579,-0.9582,-0.9527,-0.9574,-0.9573,-0.9576,-0.9577,-0.9571,-0.9517,-0.9516,-0.9514,-0.9513,0,-1.004,-1.0037,-0.9995,-0.995,-0.9914,-0.9878,-0.9844,-0.9819,-0.9809,-0.9772,-0.9717,-0.9684,-0.9617,-0.9563,-0.9512,-0.949,-0.9498,-0.9499,-0.9483,-0.9481,-0.9484,-0.9478,-0.9646,-0.9502,-0.9503,-0.9504,-0.9505,-0.9505,-0.9955,-0.9915,-0.9882,-0.9834,-0.9807,-0.9774,-0.9734,-0.9717,-0.9672,-0.9618,-0.9618,-0.9556,-0.9519,-0.9451,-0.9426,-0.9376,-0.9393,-0.9371,-0.9365,-0.9359,-0.9352,-0.9495,-0.9367,-0.9367,-0.9368,-0.9368,-0.9368,0,-0.9834,-0.9814,-0.9769,-0.9721,-0.9681,-0.9695,-0.9657,-0.9622,-0.9569,-0.9535,-0.9492,-0.9427,-0.9373,-0.9347,-0.9293,-0.9257,-0.9259,-0.9243,-0.9244,-0.9238,-0.9343,-0.936,-0.9242,-0.9242,-0.9242,-0.9242,-0.9242,-0.9242,-0.9767,-0.9699,-0.9691,-0.9609,-0.9588,-0.9529,-0.9506,-0.9474,-0.9446,-0.9373,-0.9329,-0.9313,-0.928,-0.9224,-0.9174,-0.9167,-0.9145,-0.9126,-0.912,-0.9218,-0.9231,-0.9243,-0.9259,-0.9122,-0.9122,-0.9019,-0.9018,-0.9018]},{"header":{"parameterUnit":"m.s-1","parameterCategory":1,"la1":30.2991,"la2":30.254,"lo1":-89.0895,"lo2":-89.0444,"dy":0.0017,"dx":0.0017,"nx":28,"ny":28,"refTime":"2024-12-03T09:00:00:Z","depth":0,"parameterNumber":3,"parameterNumberName":"V-component_of_WINDS"},"data":[0,0,0,0,0,0,0,0,0,0,0,0,0,0,0,0,0,0,0,0,0,0,0,0,0,0,0,0,0,0,0,0,0,0,0,0,0,0,0,0,0,0,0,0,0,0,0,0,0,0,0,0,0,0,0,0,0,0,0.9992,0.9993,0,1.0031,1.0032,1.0032,0.999,0.9988,0.9986,0.9985,1.0024,1.0027,1.0029,0,0,0,0,0,0,0,0,0,0,0,0,0,0.988,0.9883,0.9992,0.9993,0.9993,1.0031,1.0032,1.0032,0.999,0.9988,0.9986,0.9984,1.0023,1.0026,1.003,0,0,0,0,0,0,0,0,0,0,0,0,0,0.9925,0.9883,0.9992,0.9977,0.9975,1.0031,1.0032,1.0033,0.999,0.9988,0.9985,0.9983,1.0022,1.0026,1.003,1.0103,0,0,1.0042,1.0043,0,0,0,0,0,0,0,0,0.9923,0.9929,0.9978,0.9978,0.9977,1.0003,1.0007,1.0056,0.9991,0.9985,0.9985,0.9982,1.0019,1.0023,1.0036,1.0105,1.0106,1.0042,1.0044,1.0046,1.0047,0,0,0,0,0,0,0,0.992,0.9927,1.0008,0.9979,0.9978,0.9968,0.9971,1.0016,1.0015,0.9985,0.9982,0.9987,1.0018,1.0032,1.0036,1.0107,1.0042,1.0045,1.0048,1.0049,1.024,1.0242,0,0,0,0,0,0,0.9918,0.9925,1.0006,1.0009,0.9943,0.9972,0.9976,0.9997,1.0015,1.0015,0.9989,0.9985,1.0027,1.0032,1.0038,1.0126,1.0046,1.005,1.0052,1.0237,1.024,1.0243,0,0,0,0,0,0,0.9916,0.9926,1.0005,0.9966,0.9975,0.9976,1.0001,0.9999,1.0013,1.0018,1.0017,1.0004,1.0025,1.0032,1.0088,1.0127,1.0051,1.0055,1.0234,1.0238,1.0242,1.0303,0,0,0,0,0,0,0.9913,0.9925,0.9953,0.9967,0.9978,1.0054,1.0003,1.0002,1.002,1.0015,1.0031,1.0032,1.0024,1.0082,1.0091,1.0131,1.0058,1.023,1.0236,1.0241,1.0297,1.0309,1.0318,0,0,0,0,0,0.9909,0.9968,0.9955,0.9965,1.0012,1.0057,1.0063,1.0053,1.0023,1.0052,1.0055,1.0031,1.0121,1.0088,1.0098,1.014,1.0228,1.0234,1.024,1.0293,1.0306,1.0318,0,0,0,0,0,0,0.9958,0.997,0.9955,1.002,1.0038,1.0049,1.0084,1.0067,1.0093,1.0087,1.0073,1.0077,1.0136,1.0143,1.0106,1.0212,1.017,1.0178,1.0206,1.0219,1.0229,1.0227,1.0061,0,0,0,0,0,0.9976,1.0012,1.0019,1.0076,1.0086,1.0084,1.0103,1.0093,1.0111,1.0118,1.0125,1.0143,1.0176,1.0197,1.0227,1.0297,1.0301,1.0331,1.0341,1.035,1.0358,1.0398,1.0412,1.0264,1.0264,1.0263,0,0,1.0015,1.0025,1.0048,1.0086,1.0099,1.0136,1.009,1.0131,1.0159,1.0124,1.0178,1.0184,1.0203,1.0267,1.0295,1.0274,1.04,1.0357,1.0364,1.0368,1.0406,1.042,1.0432,1.0268,1.0267,1.0266,0,0,1.0104,1.0115,1.0165,1.0178,1.0198,1.0197,1.0209,1.0223,1.0226,1.028,1.0255,1.0287,1.0343,1.0358,1.0373,1.047,1.045,1.0479,1.0535,1.0574,1.0586,1.0596,1.0633,1.0646,1.0487,1.0487,1.0487,0,1.015,1.0205,1.0192,1.0236,1.0254,1.0224,1.0275,1.0289,1.0318,1.0331,1.0307,1.0377,1.0388,1.0456,1.048,1.0492,1.0506,1.0479,1.0585,1.0595,1.0605,1.064,1.0653,1.0491,1.0491,1.049,1.049,0,1.0261,1.0299,1.0337,1.0367,1.0389,1.0435,1.043,1.0454,1.0443,1.0444,1.05,1.0511,1.0544,1.0559,1.0548,1.0626,1.0613,1.0587,1.0544,1.0623,1.0656,1.0669,1.0496,1.0495,1.0494,1.0493,0,0,1.0383,1.0406,1.042,1.0434,1.0454,1.0484,1.053,1.0562,1.0584,1.0604,1.0644,1.0692,1.0668,1.0686,1.0676,1.071,1.0789,1.068,1.068,1.0702,1.0879,1.09,1.0916,1.0775,1.0777,1.0779,1.0878,0,1.0475,1.0555,1.0546,1.0623,1.066,1.0632,1.0672,1.0689,1.0692,1.0723,1.0725,1.076,1.0725,1.0736,1.0768,1.0772,1.0824,1.0765,1.0813,1.0814,1.0812,1.0933,1.0955,1.1048,1.089,1.0893,1.0894,0,1.0594,1.062,1.0701,1.0717,1.0732,1.0769,1.0799,1.0829,1.0848,1.0847,1.0867,1.0851,1.0898,1.0853,1.0918,1.0878,1.0896,1.0901,1.0904,1.0911,1.0861,1.0945,1.1077,1.1092,1.0914,1.0912,1.0911,0,1.0678,1.0733,1.079,1.0802,1.0822,1.0848,1.0858,1.0874,1.0895,1.0921,1.0935,1.0965,1.0983,1.1007,1.1001,1.0968,1.1068,1.1022,1.107,1.1071,1.1094,1.1093,1.1235,1.1102,1.1102,1.1101,1.1101,0,1.0784,1.0835,1.0829,1.0864,1.092,1.0909,1.0965,1.0971,1.0986,1.1022,1.0999,1.1034,1.1022,1.1056,1.105,1.1107,1.1114,1.1115,1.1114,1.1119,1.1119,1.1133,1.1128,1.1105,1.1104,1.1104,1.1103,0,1.0889,1.0886,1.0946,1.096,1.0965,1.1007,1.1019,1.1052,1.1052,1.1098,1.1108,1.1109,1.1148,1.1143,1.1186,1.1182,1.1253,1.1242,1.1247,1.1246,1.1296,1.1292,1.1453,1.1474,1.1325,1.1327,1.1328,0,1.0958,1.0997,1.1016,1.1039,1.105,1.1087,1.1108,1.1098,1.1121,1.1147,1.1177,1.1214,1.1243,1.1306,1.1311,1.1344,1.1335,1.1389,1.134,1.1345,1.134,1.1339,1.1344,1.14,1.1402,1.1403,1.1404,0,1.1082,1.1079,1.1111,1.1143,1.117,1.1194,1.1217,1.1236,1.1228,1.1256,1.1296,1.1318,1.1363,1.14,1.1432,1.1441,1.1423,1.1419,1.1433,1.144,1.1442,1.1445,1.1277,1.1416,1.1415,1.1414,1.1413,1.1413,1.1173,1.1207,1.1226,1.1263,1.1279,1.1301,1.1334,1.1338,1.1371,1.1408,1.1399,1.1445,1.1463,1.1504,1.1517,1.1552,1.1533,1.1552,1.1557,1.1563,1.157,1.1434,1.1558,1.1557,1.1557,1.1557,1.1556,0,1.1297,1.1309,1.1343,1.1375,1.1405,1.1384,1.1408,1.1434,1.1475,1.1494,1.1524,1.157,1.1607,1.1614,1.1649,1.1676,1.1669,1.1686,1.1685,1.1689,1.1584,1.157,1.1692,1.1692,1.1692,1.1692,1.1692,1.1692,1.1366,1.1424,1.1424,1.149,1.15,1.1545,1.1561,1.1582,1.1597,1.1651,1.1681,1.1686,1.1701,1.1737,1.177,1.1771,1.1786,1.1808,1.1806,1.1709,1.1696,1.1683,1.167,1.1811,1.1811,1.1908,1.1909,1.191]}]]